BOV292 SLVR-SLLP

Flight info

Callsign BOV292
Flight time 0h 55m
Altitude 32000
Route SANSO UM793 DAKOG
Aircraft B738/M-SDGIJ1LRWY/SB1

Departure

Time 2026-05-04 17:01
Airport Viru Viru International Airport (SLVR)

Arrival

Time 2026-05-04 17:57
Airport El Alto International Airport (SLLP)
Time Latitude Longitude Altitude Speed Heading
2026-05-04 16:43 -17.64710 -63.14002 1253 ft 0 kts 238°
2026-05-04 16:53 -17.64696 -63.13980 1252 ft 2 kts 237°
2026-05-04 16:54 -17.64688 -63.13966 1252 ft 2 kts 238°
2026-05-04 16:55 -17.64648 -63.13947 1252 ft 0 kts 150°
2026-05-04 16:55 -17.64642 -63.13952 1252 ft 0 kts 147°
2026-05-04 16:56 -17.64645 -63.13950 1252 ft 2 kts 147°
2026-05-04 16:57 -17.64677 -63.13929 1252 ft 8 kts 148°
2026-05-04 16:57 -17.64804 -63.13845 1253 ft 10 kts 147°
2026-05-04 16:58 -17.64796 -63.13604 1249 ft 16 kts 63°
2026-05-04 16:58 -17.64859 -63.13515 1249 ft 19 kts 147°
2026-05-04 16:59 -17.65165 -63.13309 1250 ft 32 kts 147°
2026-05-04 17:00 -17.65874 -63.12803 1252 ft 16 kts 92°
2026-05-04 17:00 -17.65510 -63.12840 1249 ft 70 kts 327°
2026-05-04 17:01 -17.64023 -63.13842 1334 ft 167 kts 327°
2026-05-04 17:01 -17.62124 -63.15151 2611 ft 169 kts 327°
2026-05-04 17:02 -17.61193 -63.17439 3264 ft 211 kts 268°
2026-05-04 17:02 -17.62359 -63.20584 3910 ft 250 kts 250°
2026-05-04 17:03 -17.63090 -63.22285 4274 ft 261 kts 254°
2026-05-04 17:03 -17.63717 -63.24126 4742 ft 268 kts 258°
2026-05-04 17:03 -17.64875 -63.27879 5970 ft 273 kts 258°
2026-05-04 17:04 -17.66066 -63.31676 7182 ft 280 kts 257°
2026-05-04 17:04 -17.67298 -63.35556 8431 ft 284 kts 257°
2026-05-04 17:05 -17.68538 -63.39491 9634 ft 289 kts 256°
2026-05-04 17:05 -17.69830 -63.43585 10413 ft 311 kts 255°
2026-05-04 17:06 -17.71261 -63.48091 10950 ft 340 kts 255°
2026-05-04 17:06 -17.72021 -63.50468 11387 ft 346 kts 254°
2026-05-04 17:07 -17.73561 -63.55275 12473 ft 354 kts 253°
2026-05-04 17:07 -17.74085 -63.56916 12836 ft 356 kts 253°
2026-05-04 17:07 -17.75130 -63.60204 13559 ft 362 kts 253°
2026-05-04 17:07 -17.75935 -63.62744 14137 ft 366 kts 252°
2026-05-04 17:08 -17.76735 -63.65273 14722 ft 369 kts 253°
2026-05-04 17:08 -17.78083 -63.70506 15857 ft 376 kts 265°
2026-05-04 17:08 -17.78090 -63.73209 16462 ft 377 kts 276°
2026-05-04 17:09 -17.77671 -63.75938 16998 ft 381 kts 284°
2026-05-04 17:09 -17.76959 -63.78622 17566 ft 383 kts 288°
2026-05-04 17:09 -17.76121 -63.81264 18126 ft 386 kts 290°
2026-05-04 17:10 -17.74332 -63.86620 19305 ft 390 kts 289°
2026-05-04 17:10 -17.71720 -63.94763 20944 ft 397 kts 288°
2026-05-04 17:11 -17.70862 -63.97498 21468 ft 399 kts 288°
2026-05-04 17:11 -17.70001 -64.00257 22013 ft 401 kts 288°
2026-05-04 17:11 -17.68267 -64.05822 23034 ft 405 kts 287°
2026-05-04 17:12 -17.67392 -64.08631 23500 ft 408 kts 287°
2026-05-04 17:12 -17.65622 -64.14309 24543 ft 410 kts 287°
2026-05-04 17:13 -17.62954 -64.22851 25912 ft 415 kts 287°
2026-05-04 17:14 -17.60236 -64.31533 27164 ft 422 kts 287°
2026-05-04 17:14 -17.59329 -64.34427 27610 ft 422 kts 287°
2026-05-04 17:14 -17.57484 -64.40308 28436 ft 425 kts 287°
2026-05-04 17:15 -17.56562 -64.43246 28857 ft 426 kts 287°
2026-05-04 17:15 -17.54715 -64.49124 29774 ft 425 kts 286°
2026-05-04 17:16 -17.53291 -64.55064 30817 ft 419 kts 278°
2026-05-04 17:16 -17.52426 -64.64085 32078 ft 415 kts 273°
2026-05-04 17:17 -17.52242 -64.67082 32153 ft 419 kts 273°
2026-05-04 17:18 -17.51513 -64.79106 32160 ft 414 kts 273°
2026-05-04 17:19 -17.50723 -64.91111 32148 ft 414 kts 273°
2026-05-04 17:20 -17.49911 -65.03128 32153 ft 414 kts 273°
2026-05-04 17:20 -17.49296 -65.12109 32284 ft 413 kts 274°
2026-05-04 17:21 -17.48885 -65.18098 32408 ft 413 kts 274°
2026-05-04 17:21 -17.48476 -65.24055 32530 ft 412 kts 274°
2026-05-04 17:22 -17.48062 -65.30056 32586 ft 413 kts 274°
2026-05-04 17:23 -17.47243 -65.42032 32601 ft 412 kts 273°
2026-05-04 17:24 -17.46649 -65.50980 32625 ft 413 kts 274°
2026-05-04 17:25 -17.45847 -65.62988 32636 ft 414 kts 274°
2026-05-04 17:26 -17.45049 -65.74985 32644 ft 414 kts 274°
2026-05-04 17:27 -17.44039 -65.89973 32610 ft 413 kts 274°
2026-05-04 17:28 -17.43222 -66.01993 32592 ft 415 kts 274°
2026-05-04 17:29 -17.41195 -66.19876 32545 ft 415 kts 288°
2026-05-04 17:31 -17.35262 -66.33621 32590 ft 414 kts 295°
2026-05-04 17:32 -17.29132 -66.47270 32711 ft 415 kts 294°
2026-05-04 17:33 -17.24262 -66.58240 32743 ft 415 kts 294°
2026-05-04 17:34 -17.19402 -66.69183 32650 ft 416 kts 295°
2026-05-04 17:35 -17.13332 -66.82906 32609 ft 416 kts 294°
2026-05-04 17:36 -17.10923 -66.88377 32606 ft 416 kts 294°
2026-05-04 17:36 -17.08509 -66.93851 32591 ft 416 kts 294°
2026-05-04 17:37 -17.06088 -66.99329 32584 ft 416 kts 295°
2026-05-04 17:37 -17.03657 -67.04827 32573 ft 416 kts 295°
2026-05-04 17:38 -17.01245 -67.10277 32620 ft 415 kts 294°
2026-05-04 17:38 -16.98826 -67.15735 32661 ft 415 kts 295°
2026-05-04 17:39 -16.95192 -67.23930 32752 ft 415 kts 295°
2026-05-04 17:39 -16.92769 -67.29388 32760 ft 415 kts 295°
2026-05-04 17:40 -16.90345 -67.34840 32788 ft 414 kts 295°
2026-05-04 17:40 -16.87922 -67.40307 32820 ft 412 kts 294°
2026-05-04 17:41 -16.85595 -67.45599 32599 ft 392 kts 294°
2026-05-04 17:41 -16.84472 -67.48154 32304 ft 385 kts 295°
2026-05-04 17:41 -16.83369 -67.50665 31888 ft 381 kts 294°
2026-05-04 17:42 -16.82266 -67.53175 31438 ft 378 kts 294°
2026-05-04 17:42 -16.81177 -67.55650 30977 ft 375 kts 295°
2026-05-04 17:42 -16.80091 -67.58113 30550 ft 371 kts 295°
2026-05-04 17:42 -16.79018 -67.60545 30094 ft 369 kts 295°
2026-05-04 17:43 -16.77941 -67.62983 29646 ft 373 kts 295°
2026-05-04 17:43 -16.76844 -67.65469 29169 ft 387 kts 295°
2026-05-04 17:43 -16.75706 -67.68043 28651 ft 392 kts 295°
2026-05-04 17:43 -16.74569 -67.70612 28142 ft 390 kts 295°
2026-05-04 17:44 -16.73435 -67.73176 27638 ft 388 kts 295°
2026-05-04 17:44 -16.72307 -67.75726 27169 ft 384 kts 295°
2026-05-04 17:44 -16.71195 -67.78243 26692 ft 382 kts 295°
2026-05-04 17:44 -16.70095 -67.80728 26248 ft 379 kts 295°
2026-05-04 17:45 -16.69008 -67.83185 25845 ft 374 kts 295°
2026-05-04 17:45 -16.67924 -67.85633 25384 ft 372 kts 295°
2026-05-04 17:45 -16.66847 -67.88068 24933 ft 369 kts 295°
2026-05-04 17:45 -16.65771 -67.90494 24500 ft 366 kts 295°
2026-05-04 17:46 -16.64708 -67.92893 24021 ft 364 kts 295°
2026-05-04 17:46 -16.63644 -67.95290 23584 ft 362 kts 295°
2026-05-04 17:46 -16.62592 -67.97658 23140 ft 361 kts 295°
2026-05-04 17:46 -16.61538 -68.00033 22702 ft 360 kts 295°
2026-05-04 17:47 -16.60503 -68.02359 22254 ft 359 kts 295°
2026-05-04 17:47 -16.59454 -68.04718 21851 ft 357 kts 295°
2026-05-04 17:47 -16.58417 -68.07052 21666 ft 347 kts 295°
2026-05-04 17:47 -16.57429 -68.09275 21572 ft 334 kts 295°
2026-05-04 17:48 -16.56470 -68.11437 21461 ft 323 kts 295°
2026-05-04 17:48 -16.55540 -68.13527 21342 ft 313 kts 296°
2026-05-04 17:48 -16.54643 -68.15547 21227 ft 303 kts 295°
2026-05-04 17:48 -16.53772 -68.17510 21139 ft 291 kts 295°
2026-05-04 17:49 -16.52939 -68.19384 21035 ft 278 kts 296°
2026-05-04 17:49 -16.52145 -68.21165 20937 ft 263 kts 296°
2026-05-04 17:49 -16.51399 -68.22839 20841 ft 248 kts 296°
2026-05-04 17:49 -16.50656 -68.24396 20747 ft 235 kts 300°
2026-05-04 17:50 -16.49834 -68.25854 20743 ft 233 kts 303°
2026-05-04 17:50 -16.48972 -68.27319 20751 ft 237 kts 302°
2026-05-04 17:50 -16.48116 -68.28801 20752 ft 238 kts 302°
2026-05-04 17:50 -16.47283 -68.30273 20739 ft 238 kts 301°
2026-05-04 17:51 -16.46422 -68.31807 20293 ft 252 kts 301°
2026-05-04 17:51 -16.45542 -68.33375 19992 ft 244 kts 301°
2026-05-04 17:51 -16.44713 -68.34855 19786 ft 235 kts 301°
2026-05-04 17:51 -16.43947 -68.36328 19432 ft 235 kts 290°
2026-05-04 17:52 -16.43871 -68.37999 19066 ft 232 kts 251°
2026-05-04 17:52 -16.44699 -68.39373 18888 ft 222 kts 221°
2026-05-04 17:52 -16.45957 -68.40282 18775 ft 223 kts 205°
2026-05-04 17:52 -16.47436 -68.40730 18629 ft 222 kts 176°
2026-05-04 17:53 -16.48909 -68.40311 18438 ft 221 kts 145°
2026-05-04 17:53 -16.50018 -68.39229 18124 ft 218 kts 123°
2026-05-04 17:53 -16.50702 -68.37861 17805 ft 209 kts 102°
2026-05-04 17:53 -16.50834 -68.36416 17516 ft 201 kts 88°
2026-05-04 17:54 -16.50804 -68.34943 17079 ft 204 kts 89°
2026-05-04 17:54 -16.50842 -68.33491 16614 ft 198 kts 91°
2026-05-04 17:54 -16.50934 -68.32106 16249 ft 190 kts 97°
2026-05-04 17:54 -16.51106 -68.30724 15903 ft 191 kts 95°
2026-05-04 17:55 -16.51188 -68.29338 15516 ft 194 kts 91°
2026-05-04 17:55 -16.51199 -68.27957 15052 ft 192 kts 90°
2026-05-04 17:55 -16.51198 -68.26572 14580 ft 189 kts 91°
2026-05-04 17:55 -16.51199 -68.25222 14117 ft 188 kts 90°
2026-05-04 17:56 -16.51195 -68.23842 13648 ft 187 kts 91°
2026-05-04 17:56 -16.51236 -68.22512 13414 ft 181 kts 92°
2026-05-04 17:56 -16.51273 -68.21210 13236 ft 181 kts 93°
2026-05-04 17:56 -16.51311 -68.19993 13235 ft 141 kts 92°
2026-05-04 17:57 -16.51335 -68.19224 13271 ft 70 kts 91°
2026-05-04 17:57 -16.51350 -68.18816 13291 ft 45 kts 91°
2026-05-04 17:57 -16.51356 -68.18488 13309 ft 45 kts 91°
2026-05-04 17:57 -16.51299 -68.18240 13325 ft 28 kts 59°
2026-05-04 17:58 -16.51191 -68.18095 13337 ft 26 kts 47°
2026-05-04 17:58 -16.51079 -68.17971 13346 ft 19 kts 45°
2026-05-04 17:58 -16.51000 -68.17872 13353 ft 13 kts 73°
2026-05-04 17:58 -16.50963 -68.17821 13355 ft 7 kts
2026-05-04 17:59 -16.50940 -68.17820 13356 ft 0 kts